Probability
0 0 0 0 0 0 0 0 0 0 0 0 0 0 0 0 0 0 0 3 3 10 6 0 0 0 0 0 0 0 0 0 0 0 0 0 0 0 0 0 0 0 0 0
0 0 0 0 0 0 0 0 0 0 0 0 0 0 0 0 0 0 0 3 3 6 3 0 0 0 0 0 0 0 0 0 0 0 0 0 0 0 0 0 0 0 0 0
0 0 0 0 0 0 0 0 0 0 0 0 0 0 0 0 0 0 0 3 3 3 3 0 0 0 0 0 0 0 0 0 0 0 0 0 0 0 0 0 0 0 0 0
0 0 0 0 0 0 0 0 0 0 0 0 0 0 0 0 0 0 0 0 0 0 3 0 0 0 0 0 0 0 0 0 0 0 0 0 0 0 0 0 0 0 0 0
0 0 0 0 0 0 0 0 0 0 0 0 0 0 0 0 0 0 0 0 0 0 0 0 0 0 0 0 0 0 0 0 0 0 0 0 0 0 0 0 0 0 0 0
0 0 0 0 0 0 0 0 0 0 0 0 0 0 0 0 0 0 0 0 0 0 0 0 0 0 0 0 0 0 0 0 0 0 0 0 0 0 0 0 0 0 0 0
0 0 0 0 0 0 0 0 0 0 0 0 0 0 0 0 0 0 0 0 0 0 0 0 0 0 0 0 0 0 0 0 0 0 0 0 0 0 0 0 0 0 0 0
0 0 0 0 0 0 0 0 0 0 0 0 0 0 0 0 0 0 0 0 0 0 0 0 0 0 0 0 0 0 0 0 0 0 0 0 0 0 0 0 0 0 0 0
0 0 0 0 0 0 0 0 0 0 0 0 0 0 0 0 0 0 0 0 0 0 0 0 0 0 0 0 0 0 0 0 0 0 0 0 0 0 0 0 0 0 0 0
0 0 0 0 0 0 0 0 0 0 0 0 0 0 0 0 0 0 0 0 0 0 0 0 0 0 0 0 0 0 0 0 0 0 0 0 0 0 0 0 0 0 0 0
0 0 0 0 0 0 0 0 0 0 0 0 0 0 0 0 0 0 0 0 0 0 0 0 0 0 0 0 0 0 0 0 0 0 0 0 0 0 0 0 0 0 0 0
0 0 0 0 0 0 0 0 0 0 0 0 0 0 0 0 0 0 0 0 0 0 0 0 0 0 0 0 0 0 0 0 0 0 0 0 0 0 0 0 0 0 0 0
0 0 0 0 0 0 0 0 0 0 0 0 0 0 0 0 0 0 0 0 0 0 0 0 0 0 0 0 0 0 0 0 0 0 0 0 0 0 0 0 0 0 0 0
0 0 0 0 0 0 0 0 0 0 0 0 0 0 0 0 0 0 0 0 0 0 0 0 0 0 0 0 0 0 0 0 0 0 0 0 0 0 0 0 0 0 0 0
0 0 0 0 0 0 0 0 0 0 0 0 0 0 0 0 0 0 0 0 0 0 0 0 0 0 0 0 0 0 0 0 0 0 0 0 0 0 0 0 0 0 0 0
0 0 0 0 0 0 0 0 0 0 0 0 0 0 0 0 0 0 0 0 0 0 0 0 0 0 0 0 0 0 0 0 0 0 0 0 0 0 0 0 0 0 0 0
0 0 0 0 0 0 0 0 0 0 0 0 0 0 0 0 0 0 0 0 0 0 0 0 0 0 0 0 0 0 0 0 0 0 0 0 0 0 0 0 0 0 0 0
0 0 0 0 0 0 0 0 0 0 0 0 0 0 0 0 0 0 0 0 0 0 0 0 0 0 0 0 0 0 0 0 0 0 0 0 0 0 0 0 0 0 0 0
0 0 0 0 0 0 0 0 0 0 0 0 0 0 0 0 0 0 0 0 0 0 0 0 0 0 0 0 0 0 0 0 0 0 0 0 0 0 0 0 0 0 0 0
0 0 0 0 0 0 0 0 0 0 0 0 0 0 0 0 0 0 0 0 0 0 0 0 0 0 0 0 0 0 0 0 0 0 0 0 0 0 0 0 0 0 0 0
0 0 0 0 0 0 0 0 0 0 0 0 0 0 0 0 0 0 0 0 0 0 0 0 0 0 0 0 0 0 0 0 0 0 0 0 0 0 0 0 0 0 0 0
0 0 0 0 0 0 0 0 0 0 0 0 0 0 0 0 0 0 0 0 0 0 0 0 0 0 0 0 0 0 0 0 0 0 0 0 0 0 0 0 0 0 0 0
0 0 0 0 0 0 0 0 0 0 0 0 0 0 0 0 0 0 0 0 0 0 0 0 0 0 0 0 0 0 0 0 0 0 0 0 0 0 0 0 0 0 0 0
0 0 0 0 0 0 0 0 0 0 0 0 0 0 0 0 0 0 0 0 0 0 0 0 0 0 0 0 0 0 0 0 0 0 0 0 0 0 0 0 0 0 0 0
0 0 0 0 0 0 0 0 0 0 0 0 0 0 0 0 0 0 0 0 0 0 0 0 0 0 0 0 0 0 0 0 0 0 0 0 0 0 0 0 0 0 0 0
0 0 0 0 0 0 0 0 0 0 0 0 0 0 0 0 0 0 0 0 0 0 0 0 0 0 0 0 0 0 0 0 0 0 0 0 0 0 0 0 0 0 0 0
Height
5804 5810 5814 5819 5824 5829 5833 5838 5842 5847 5850 5854 5857 5860 5862 5863 5865 5867 5868 5869 5869 5870 5870 5870 5870 5870 5870 5869 5868 5867 5866 5865 5864 5862 5860 5859 5857 5855 5852 5850 5847 5844 5842 5839
5804 5809 5813 5817 5822 5826 5831 5836 5840 5845 5848 5852 5855 5858 5860 5862 5863 5865 5866 5867 5868 5869 5869 5869 5869 5869 5869 5868 5867 5866 5865 5864 5863 5861 5860 5858 5856 5854 5852 5849 5846 5844 5841 5839
5804 5809 5812 5817 5821 5826 5831 5836 5840 5844 5847 5851 5854 5857 5859 5860 5862 5863 5865 5866 5867 5868 5868 5868 5868 5868 5867 5867 5866 5866 5865 5864 5862 5861 5859 5858 5856 5854 5851 5849 5846 5844 5841 5838
5804 5808 5812 5817 5821 5826 5830 5835 5839 5843 5847 5850 5854 5856 5857 5859 5860 5861 5863 5865 5866 5867 5867 5867 5867 5867 5867 5866 5866 5865 5864 5863 5862 5861 5859 5857 5855 5853 5851 5849 5846 5843 5841 5838
5806 5809 5813 5818 5822 5827 5831 5835 5839 5842 5846 5849 5852 5855 5857 5857 5859 5861 5862 5863 5864 5865 5865 5866 5866 5866 5866 5866 5866 5865 5864 5863 5862 5861 5859 5857 5855 5854 5851 5849 5846 5844 5841 5838
5807 5811 5815 5819 5823 5826 5831 5835 5839 5842 5845 5849 5852 5854 5856 5857 5859 5860 5861 5862 5863 5864 5864 5865 5865 5866 5866 5866 5866 5865 5864 5863 5862 5860 5859 5857 5856 5854 5852 5849 5847 5844 5841 5839
5809 5813 5816 5819 5823 5827 5831 5835 5839 5841 5844 5848 5850 5853 5855 5856 5858 5859 5860 5861 5862 5863 5864 5864 5865 5865 5865 5865 5865 5864 5864 5863 5862 5860 5859 5858 5856 5854 5852 5850 5847 5845 5842 5840
5811 5815 5818 5821 5824 5828 5831 5836 5840 5842 5844 5847 5849 5851 5854 5855 5856 5858 5859 5860 5861 5862 5863 5864 5864 5865 5865 5865 5864 5864 5863 5863 5862 5860 5859 5858 5856 5854 5852 5850 5848 5845 5843 5840
5814 5817 5820 5823 5826 5829 5832 5835 5839 5842 5844 5846 5848 5850 5853 5854 5855 5857 5858 5859 5860 5861 5862 5863 5863 5864 5864 5864 5864 5863 5863 5862 5861 5860 5859 5858 5856 5854 5852 5850 5848 5846 5843 5841
5816 5818 5821 5823 5827 5830 5834 5836 5839 5841 5842 5844 5847 5849 5852 5853 5854 5855 5857 5858 5859 5860 5861 5862 5862 5863 5863 5863 5863 5863 5862 5862 5861 5860 5859 5857 5856 5854 5852 5850 5848 5846 5844 5841
5816 5819 5822 5824 5827 5830 5834 5836 5838 5840 5842 5844 5846 5851 5850 5851 5853 5854 5855 5856 5858 5859 5860 5861 5861 5862 5862 5862 5862 5862 5862 5861 5860 5859 5858 5857 5855 5854 5852 5850 5848 5846 5843 5841
5818 5820 5822 5825 5827 5830 5832 5835 5837 5840 5841 5843 5845 5851 5849 5850 5851 5853 5854 5855 5856 5858 5859 5859 5860 5861 5861 5861 5862 5861 5861 5860 5859 5859 5857 5856 5855 5853 5851 5849 5847 5845 5843 5841
5818 5821 5823 5825 5829 5830 5831 5833 5836 5838 5840 5841 5844 5849 5847 5849 5850 5851 5853 5854 5855 5856 5857 5858 5859 5859 5860 5860 5860 5860 5860 5859 5858 5857 5856 5855 5853 5852 5850 5848 5846 5844 5842 5840
5819 5821 5823 5826 5827 5828 5830 5832 5834 5836 5838 5840 5842 5845 5846 5847 5849 5850 5851 5852 5853 5854 5855 5856 5857 5858 5858 5859 5859 5859 5858 5858 5857 5856 5855 5853 5852 5850 5848 5846 5844 5842 5840 5838
5818 5820 5822 5824 5825 5827 5829 5831 5832 5834 5836 5838 5841 5842 5844 5846 5847 5848 5849 5850 5852 5853 5854 5855 5855 5856 5857 5857 5857 5857 5856 5856 5855 5854 5853 5851 5850 5848 5846 5844 5842 5840 5837 5835
5817 5819 5821 5823 5824 5826 5827 5829 5830 5832 5834 5836 5838 5840 5842 5843 5844 5846 5847 5848 5850 5851 5852 5853 5853 5854 5854 5855 5855 5854 5854 5853 5852 5851 5850 5848 5847 5845 5843 5841 5839 5837 5834 5832
5815 5817 5819 5821 5822 5824 5826 5828 5829 5830 5832 5834 5835 5838 5839 5841 5842 5843 5845 5846 5847 5848 5849 5850 5851 5851 5852 5852 5852 5852 5851 5850 5849 5848 5847 5845 5843 5841 5840 5837 5835 5833 5830 5828
5812 5814 5816 5818 5821 5822 5826 5825 5826 5827 5829 5831 5833 5834 5836 5838 5839 5841 5842 5843 5844 5845 5846 5847 5848 5848 5849 5849 5848 5848 5847 5846 5845 5844 5842 5841 5839 5837 5835 5833 5830 5828 5825 5822
5809 5811 5813 5815 5816 5819 5822 5822 5823 5825 5827 5828 5830 5832 5833 5835 5836 5838 5839 5840 5841 5842 5843 5843 5844 5844 5845 5845 5844 5844 5843 5842 5841 5839 5838 5836 5834 5832 5830 5827 5825 5822 5819 5816
5805 5807 5810 5811 5813 5815 5819 5820 5820 5822 5824 5825 5827 5828 5830 5831 5833 5835 5835 5836 5837 5838 5839 5839 5840 5840 5840 5840 5840 5839 5838 5837 5835 5834 5832 5830 5828 5826 5823 5821 5818 5815 5812 5809
5801 5803 5805 5807 5808 5811 5815 5815 5817 5819 5822 5822 5823 5824 5826 5827 5829 5831 5831 5832 5833 5833 5834 5834 5835 5835 5835 5834 5834 5833 5832 5831 5829 5827 5826 5823 5821 5819 5816 5813 5810 5807 5804 5800
5796 5798 5800 5801 5804 5809 5809 5811 5813 5815 5816 5817 5819 5820 5822 5823 5824 5825 5826 5827 5827 5828 5828 5829 5829 5829 5829 5828 5827 5826 5825 5824 5822 5820 5818 5816 5813 5811 5808 5805 5801 5798 5795 5791
5790 5793 5794 5797 5801 5802 5803 5805 5807 5809 5811 5812 5814 5815 5816 5817 5818 5819 5820 5821 5822 5822 5822 5822 5822 5822 5821 5821 5820 5819 5817 5816 5814 5812 5809 5807 5804 5801 5798 5795 5792 5788 5785 5781
5784 5786 5788 5791 5793 5795 5797 5799 5801 5803 5805 5806 5808 5809 5810 5811 5812 5813 5814 5814 5815 5815 5815 5815 5815 5814 5813 5812 5811 5810 5808 5806 5804 5802 5800 5797 5794 5791 5788 5785 5781 5778 5774 5770
5777 5779 5781 5783 5786 5788 5790 5792 5794 5796 5798 5799 5801 5802 5803 5804 5805 5806 5806 5807 5807 5807 5807 5807 5806 5805 5805 5803 5802 5800 5798 5796 5794 5792 5789 5786 5784 5781 5777 5774 5770 5767 5763 5758
5769 5771 5773 5776 5779 5780 5783 5784 5786 5788 5789 5791 5793 5794 5795 5796 5797 5797 5798 5798 5798 5798 5798 5797 5797 5796 5795 5793 5792 5790 5787 5785 5783 5780 5778 5775 5772 5769 5766 5762 5759 5755 5751 5746
Wind_Speed
21 22 22 22 23 24 25 23 23 22 20 17 15 13 11 10 9 8 7 6 4 4 3 2 1 0 1 2 3 4 5 6 6 7 8 9 9 10 11 11 11 11 12 12
20 21 22 23 24 24 25 24 24 22 20 18 15 14 13 11 10 9 8 6 5 4 3 2 1 1 1 2 3 4 5 5 6 7 8 8 9 10 11 11 12 12 12 13
19 22 23 23 23 24 25 25 24 22 20 18 16 14 12 11 10 8 7 6 5 4 3 2 1 1 2 2 3 4 5 5 6 7 7 8 9 10 11 12 12 13 13 13
21 24 24 24 24 25 25 24 23 21 19 17 16 14 13 12 9 7 6 6 5 4 3 2 1 1 2 3 3 4 4 5 6 6 7 8 9 10 11 12 13 13 13 13
20 22 23 23 24 24 24 23 22 20 19 17 16 14 13 10 8 7 6 5 5 4 3 2 2 2 2 3 3 3 4 5 6 7 7 8 9 10 11 12 13 14 14 14
20 21 22 22 24 24 24 23 21 20 18 17 16 14 11 9 8 7 6 5 5 4 3 3 2 2 2 2 2 3 4 5 6 7 8 8 9 10 11 12 13 13 14 14
19 21 21 22 23 24 24 23 22 21 19 17 16 14 11 8 7 7 6 6 5 4 4 4 3 3 2 2 2 3 4 5 6 7 8 8 9 10 11 12 12 13 14 14
18 19 20 21 22 23 23 21 20 19 18 16 15 13 11 9 7 7 6 6 5 4 4 4 4 3 2 2 2 3 3 4 5 6 7 8 9 10 11 11 12 13 14 14
19 19 20 20 20 21 21 20 18 16 16 15 14 12 10 9 8 7 6 6 5 5 4 4 4 3 2 1 1 2 3 4 5 6 7 8 8 10 11 12 13 13 13 14
18 19 20 20 19 19 19 18 16 16 16 15 14 12 9 8 7 7 6 5 5 5 5 4 4 3 2 1 1 2 3 4 5 6 6 7 8 9 10 11 12 13 14 14
16 18 20 19 18 17 18 17 16 15 13 14 14 11 9 8 7 6 6 6 6 6 5 5 4 3 3 1 0 1 3 4 4 5 6 7 8 9 10 11 12 13 14 14
15 16 18 18 19 18 17 17 16 15 13 13 12 10 9 8 7 6 6 6 6 6 6 5 5 4 3 2 1 1 2 3 4 5 6 7 8 9 10 10 12 13 14 14
14 14 16 18 18 18 17 15 16 15 14 13 12 10 9 8 8 7 7 7 7 7 6 6 5 4 3 2 2 2 3 4 4 5 6 7 8 9 10 11 12 13 14 15
12 13 14 14 15 16 15 14 15 15 15 13 11 9 9 8 8 8 8 8 7 7 7 7 6 5 4 4 3 3 4 4 5 6 7 8 9 10 11 12 13 14 15 15
12 12 12 13 14 14 13 13 14 14 14 13 11 9 7 8 8 8 8 8 8 8 7 7 7 6 5 5 4 5 5 6 6 7 9 10 11 11 12 13 14 15 16 17
12 12 11 11 11 13 13 13 13 13 13 12 11 9 9 8 8 9 9 9 8 8 8 7 7 7 6 6 6 6 7 8 9 10 11 11 12 13 14 15 16 16 17 18
13 12 12 11 11 12 12 13 14 13 12 11 10 10 10 9 9 9 10 10 9 9 8 8 8 8 8 8 9 9 10 11 12 12 13 14 15 16 16 17 18 19 20 20
14 14 14 13 13 12 11 13 14 14 13 12 11 11 10 11 11 11 10 10 10 10 9 10 10 10 10 11 11 12 13 14 15 15 16 17 18 19 19 20 20 21 22 23
17 16 16 16 15 13 13 13 13 13 13 13 12 12 12 12 12 11 11 11 11 11 11 11 12 12 12 13 14 14 15 16 17 18 19 20 21 21 22 23 23 24 25 26
18 18 18 17 17 15 13 14 14 14 13 13 12 13 13 13 13 13 13 13 13 13 13 13 14 14 15 16 16 17 18 19 20 21 22 22 23 24 25 26 26 27 28 29
19 19 19 18 18 15 15 15 15 15 13 14 14 14 14 14 14 14 14 14 15 15 15 16 16 16 17 18 19 20 21 22 23 23 24 25 26 27 28 29 30 30 31 32
21 20 20 20 19 16 17 17 16 15 16 15 15 15 16 16 16 16 16 16 17 17 18 18 19 19 20 21 22 23 24 25 26 27 28 29 30 30 31 32 33 33 34 35
23 22 22 22 19 18 18 18 18 18 17 17 17 17 17 18 18 18 19 19 19 20 21 21 22 23 23 25 26 26 27 28 29 30 31 32 33 34 34 35 35 36 37 38
25 24 24 23 22 21 20 20 20 20 20 20 19 19 20 20 21 21 22 22 23 23 24 25 26 26 27 28 29 30 31 32 33 34 34 35 36 37 37 38 38 39 40 41
27 26 26 25 24 24 23 23 23 22 22 22 22 22 22 23 24 24 25 25 26 27 28 28 29 30 31 32 33 34 35 36 36 37 38 38 39 39 40 40 41 41 42 43
29 29 29 28 27 27 27 27 26 26 26 26 26 26 26 27 27 28 28 29 30 31 31 32 33 34 35 36 37 37 38 39 39 40 40 40 41 41 42 42 43 44 45 45
Wind_Direction
191 189 189 188 189 188 186 183 183 187 188 189 189 192 194 193 186 186 184 187 196 192 189 196 177 100 51 12 360 356 350 352 352 352 354 355 355 357 357 355 353 352 353 354
182 181 180 181 182 182 183 181 180 182 182 183 186 188 191 189 189 185 180 183 193 187 191 190 147 83 56 17 8 4 354 350 351 353 355 357 358 360 0 0 359 359 358 358
174 175 177 179 178 175 178 175 174 174 176 178 182 185 184 185 187 180 178 179 181 183 190 198 153 80 43 30 26 19 7 4 0 358 360 2 3 4 5 6 5 4 3 1
168 171 174 176 174 171 169 171 171 170 172 173 175 177 177 176 175 172 178 179 174 175 183 177 144 101 63 47 39 26 17 14 10 8 9 9 11 11 11 11 9 8 6 6
167 168 172 174 172 171 168 169 170 169 171 172 171 172 170 167 166 173 176 178 173 171 175 170 152 118 85 71 53 38 34 27 21 18 16 15 15 15 14 13 13 12 11 10
162 164 170 171 171 172 171 172 172 174 175 174 172 166 162 164 167 173 174 178 180 172 172 167 155 138 109 88 66 52 43 34 27 25 22 21 20 19 17 16 16 16 15 15
160 163 167 168 170 172 172 172 173 175 177 174 173 167 163 167 171 172 174 176 173 171 173 170 163 149 128 104 72 58 47 38 33 30 27 26 24 21 17 17 18 18 18 18
156 161 165 167 169 171 173 175 178 181 182 180 175 170 165 166 169 170 170 172 172 176 180 176 169 164 153 123 78 61 47 36 30 28 27 26 25 24 22 21 20 18 17 15
152 158 163 168 168 172 174 177 181 185 188 191 179 170 168 167 169 169 171 175 173 178 185 182 177 173 164 137 87 63 46 33 26 23 21 20 19 20 21 20 20 18 16 15
156 159 162 164 168 173 177 180 184 187 190 191 183 175 169 168 170 169 172 179 181 185 190 186 188 189 184 172 85 49 36 26 20 16 13 10 11 12 13 14 15 14 13 11
160 163 166 169 174 178 184 188 189 189 190 195 191 181 177 175 174 175 184 190 191 195 197 198 200 197 193 188 97 33 23 16 11 6 3 1 2 3 5 6 6 7 7 7
161 164 172 177 180 184 189 194 197 199 201 202 201 193 194 187 186 191 198 200 201 202 205 209 209 204 202 213 244 334 352 354 354 355 355 355 357 358 358 357 355 356 357 358
172 176 181 182 185 186 189 194 200 208 211 213 210 198 202 198 200 203 206 207 208 211 214 217 217 215 221 239 264 299 321 332 336 340 344 346 348 348 348 347 347 347 347 348
185 184 186 189 192 194 198 203 208 213 214 217 217 215 213 212 210 210 210 211 214 217 220 223 227 231 240 255 271 289 307 318 326 329 332 334 337 338 338 338 338 338 339 340
196 193 191 193 196 199 201 208 213 215 217 221 225 228 221 216 211 209 211 215 217 221 225 228 233 239 247 259 271 284 297 307 315 320 322 325 327 329 330 329 330 330 330 332
204 207 203 199 200 204 207 212 218 222 224 227 232 236 226 220 217 214 217 219 221 226 229 231 236 244 252 261 273 285 295 302 308 312 314 316 318 320 321 322 323 323 324 325
211 213 212 211 217 217 214 215 219 223 226 230 229 229 228 224 221 222 224 225 227 232 237 239 242 249 258 266 275 283 291 296 301 305 307 309 310 311 312 314 316 317 317 318
218 222 222 223 227 228 221 224 225 227 230 231 228 229 230 228 226 225 226 228 232 237 243 247 250 256 264 270 277 283 289 293 296 299 302 304 306 307 308 309 310 311 312 313
223 227 231 234 236 232 229 229 229 230 230 230 227 228 230 230 228 228 232 236 240 247 251 255 259 263 268 273 279 285 288 291 294 296 298 301 303 304 304 305 306 307 308 309
228 231 234 236 238 232 228 229 230 230 230 229 227 228 229 231 233 235 240 245 248 252 255 259 264 267 271 275 279 283 288 291 293 295 296 298 299 300 301 303 303 304 305 306
231 233 235 236 236 231 231 232 233 234 231 232 231 231 233 237 240 243 247 250 253 256 259 263 266 270 273 277 281 285 288 290 292 294 295 297 298 298 300 300 301 302 303 304
231 232 234 236 237 235 235 235 236 235 234 236 236 238 241 243 247 250 252 254 257 260 263 266 270 273 277 280 283 286 289 290 291 293 294 296 297 297 298 298 299 300 301 302
235 236 236 238 239 239 239 239 238 238 239 239 241 243 246 248 251 254 257 260 262 265 267 270 273 276 279 282 285 288 289 290 291 292 294 295 295 295 296 297 297 298 299 300
238 238 240 241 240 240 240 240 241 242 243 244 246 248 250 252 255 259 261 263 265 267 270 273 275 277 280 283 286 287 289 291 292 292 293 294 294 294 295 296 296 297 298 298
242 242 242 243 243 243 243 244 244 245 247 248 250 253 256 258 259 262 263 265 268 270 272 274 276 277 279 282 285 287 289 291 291 292 292 293 293 294 294 294 295 296 297 298
243 245 246 245 245 247 248 248 249 249 251 252 254 256 259 262 263 264 266 267 269 271 273 275 277 278 280 282 283 285 288 289 290 291 292 292 293 293 293 293 294 295 296 297